Tracking 27380 objects as of 5-Jun-2023
HD Live streaming from Space Station
objects crossing your sky now

DELTA 1 DEB

Track DELTA 1 DEB now!
10-day predictions


NORAD ID: 7166
Int'l Code: 1973-086EE
Perigee: 1,497.1 km
Apogee: 1,520.3 km
Inclination: 102.2 °
Period: 116.0 minutes
Semi major axis: 7879 km
RCS: 0.0457 m2 (small)
Launch date: November 6, 1973
Source: United States (US)
Launch site: AIR FORCE WESTERN TEST RANGE (AFWTR)

Note: This is SATELLITE DEBRIS
Your satellite tracking list
Your tracking list is empty




NASA's NSSDC Master Catalog

Two Line Element Set (TLE):
1  7166U 73086EE  23156.46288303  .00000056  00000-0  74742-3 0  9993
2  7166 102.1694 140.6329 0014708 142.5357 344.0067 12.41182430243343
Source of the keplerian elements: AFSPC